When you browse on this site, cookies collect data to enhance your experience and personalize the content and advertising you see.
Visit our Privacy Policy to learn more. By continuing to use the site, you agree to this use of cookies and data.
EN

Hourly Weather Nizhnyaya Bannovka

Today, 19 September, Saturday

Time Temperature Precipitation Wind Pressure Humidity
00:00 +12°C° 0.6 mm 4 mps 748 mmHg 82%
01:00 +12°C° 0 mm 4 mps 748 mmHg 82%
02:00 +12°C° 0 mm 4 mps 748 mmHg 82%
03:00 +11°C° 0 mm 4 mps 748 mmHg 82%
04:00 +10°C° 0 mm 4 mps 748 mmHg 82%
05:00 +10°C° 0 mm 4 mps 748 mmHg 82%
06:00 +8°C° 0 mm 5 mps 748 mmHg 81%
07:00 +9°C° 0 mm 6 mps 749 mmHg 75%
08:00 +10°C° 0 mm 7 mps 749 mmHg 69%
09:00 +12°C° 0 mm 8 mps 749 mmHg 63%
10:00 +12°C° 0 mm 8 mps 749 mmHg 60%
11:00 +13°C° 0 mm 8 mps 749 mmHg 56%
12:00 +15°C° 0 mm 8 mps 749 mmHg 53%
13:00 +15°C° 0.1 mm 9 mps 749 mmHg 51%
14:00 +15°C° 0.1 mm 9 mps 749 mmHg 49%
15:00 +16°C° 0.1 mm 9 mps 749 mmHg 47%
16:00 +13°C° 0 mm 9 mps 749 mmHg 55%
17:00 +12°C° 0 mm 9 mps 750 mmHg 62%
18:00 +11°C° 0 mm 8 mps 751 mmHg 70%
19:00 +10°C° 0 mm 8 mps 751 mmHg 69%
20:00 +10°C° 0 mm 8 mps 751 mmHg 69%
21:00 +9°C° 0 mm 8 mps 752 mmHg 68%
22:00 +9°C° 0 mm 7 mps 752 mmHg 69%
23:00 +9°C° 0 mm 7 mps 752 mmHg 69%

Tomorrow, 20 September, Sunday

Time Temperature Precipitation Wind Pressure Humidity
00:00 +9°C° 0 mm 6 mps 752 mmHg 70%
01:00 +8°C° 0 mm 6 mps 752 mmHg 75%
02:00 +8°C° 0 mm 6 mps 752 mmHg 81%
03:00 +7°C° 0 mm 5 mps 752 mmHg 87%
04:00 +7°C° 0 mm 5 mps 752 mmHg 88%
05:00 +7°C° 0 mm 5 mps 752 mmHg 88%
06:00 +7°C° 0 mm 6 mps 752 mmHg 89%
07:00 +8°C° 0 mm 6 mps 752 mmHg 79%
08:00 +10°C° 0 mm 6 mps 752 mmHg 70%
09:00 +11°C° 0 mm 7 mps 752 mmHg 60%
10:00 +12°C° 0.2 mm 7 mps 752 mmHg 56%
11:00 +13°C° 0.2 mm 8 mps 752 mmHg 52%
12:00 +13°C° 0.2 mm 9 mps 753 mmHg 48%
13:00 +13°C° 0 mm 9 mps 753 mmHg 46%
14:00 +13°C° 0 mm 9 mps 753 mmHg 45%
15:00 +13°C° 0 mm 9 mps 754 mmHg 44%
16:00 +12°C° 0 mm 9 mps 754 mmHg 48%
17:00 +11°C° 0 mm 8 mps 755 mmHg 52%
18:00 +10°C° 0 mm 7 mps 755 mmHg 56%
19:00 +9°C° 0 mm 6 mps 756 mmHg 59%
20:00 +8°C° 0 mm 6 mps 757 mmHg 62%
21:00 +7°C° 0 mm 5 mps 757 mmHg 65%
22:00 +6°C° 0 mm 5 mps 758 mmHg 66%
23:00 +6°C° 0 mm 4 mps 758 mmHg 67%

Day after tomorrow, 21 September, Monday

Time Temperature Precipitation Wind Pressure Humidity
00:00 +6°C° 0 mm 4 mps 759 mmHg 69%
01:00 +5°C° 0 mm 4 mps 759 mmHg 71%
02:00 +5°C° 0 mm 4 mps 759 mmHg 73%
03:00 +5°C° 0 mm 4 mps 759 mmHg 75%
04:00 +5°C° 0 mm 4 mps 759 mmHg 76%
05:00 +5°C° 0 mm 4 mps 759 mmHg 77%
06:00 +5°C° 0 mm 5 mps 760 mmHg 77%
07:00 +6°C° 0 mm 5 mps 760 mmHg 70%
08:00 +8°C° 0 mm 6 mps 760 mmHg 62%
09:00 +10°C° 0 mm 6 mps 760 mmHg 54%
10:00 +13°C° 0 mm 6 mps 760 mmHg 50%
11:00 +14°C° 0 mm 6 mps 759 mmHg 45%
12:00 +15°C° 0 mm 6 mps 759 mmHg 40%
13:00 +16°C° 0 mm 7 mps 759 mmHg 39%
14:00 +16°C° 0 mm 7 mps 758 mmHg 39%
15:00 +16°C° 0 mm 7 mps 758 mmHg 38%
16:00 +15°C° 0 mm 6 mps 758 mmHg 41%
17:00 +14°C° 0 mm 5 mps 758 mmHg 44%
18:00 +14°C° 0 mm 4 mps 757 mmHg 48%
19:00 +13°C° 0 mm 4 mps 758 mmHg 50%
20:00 +12°C° 0 mm 4 mps 758 mmHg 52%
21:00 +10°C° 0 mm 5 mps 758 mmHg 54%
22:00 +10°C° 0 mm 5 mps 758 mmHg 57%
23:00 +10°C° 0 mm 5 mps 758 mmHg 60%

22 September, Tuesday

Time Temperature Precipitation Wind Pressure Humidity
00:00 +9°C° 0 mm 5 mps 758 mmHg 63%
01:00 +9°C° 0 mm 5 mps 758 mmHg 66%
02:00 +9°C° 0 mm 5 mps 758 mmHg 69%
03:00 +10°C° 0 mm 4 mps 758 mmHg 72%
04:00 +8°C° 0 mm 4 mps 758 mmHg 76%
05:00 +8°C° 0 mm 4 mps 759 mmHg 80%
06:00 +8°C° 0 mm 3 mps 759 mmHg 83%
07:00 +10°C° 0 mm 3 mps 760 mmHg 77%
08:00 +12°C° 0 mm 3 mps 760 mmHg 71%
09:00 +14°C° 0 mm 3 mps 760 mmHg 64%
10:00 +16°C° 0 mm 3 mps 760 mmHg 59%
11:00 +18°C° 0 mm 3 mps 761 mmHg 54%
12:00 +19°C° 0 mm 3 mps 761 mmHg 50%
13:00 +19°C° 0 mm 3 mps 761 mmHg 49%
14:00 +19°C° 0 mm 3 mps 761 mmHg 49%
15:00 +19°C° 0 mm 3 mps 761 mmHg 48%
16:00 +18°C° 0 mm 3 mps 761 mmHg 52%
17:00 +17°C° 0 mm 2 mps 761 mmHg 56%
18:00 +16°C° 0 mm 2 mps 761 mmHg 59%
19:00 +15°C° 0 mm 1 mps 761 mmHg 62%
20:00 +15°C° 0 mm 1 mps 762 mmHg 65%
21:00 +13°C° 0 mm 0 mps 762 mmHg 68%
22:00 +14°C° 0 mm 1 mps 762 mmHg 69%
23:00 +13°C° 0 mm 1 mps 762 mmHg 70%

23 September, Wednesday

Time Temperature Precipitation Wind Pressure Humidity
00:00 +13°C° 0 mm 1 mps 762 mmHg 71%
01:00 +13°C° 0 mm 1 mps 763 mmHg 73%
02:00 +13°C° 0 mm 1 mps 763 mmHg 74%
03:00 +12°C° 0 mm 1 mps 763 mmHg 75%
04:00 +12°C° 0 mm 1 mps 763 mmHg 76%
05:00 +12°C° 0 mm 1 mps 763 mmHg 76%
06:00 +12°C° 0 mm 1 mps 763 mmHg 77%
07:00 +14°C° 0 mm 2 mps 764 mmHg 69%
08:00 +16°C° 0 mm 2 mps 764 mmHg 62%
09:00 +18°C° 0 mm 2 mps 764 mmHg 54%
10:00 +19°C° 0 mm 2 mps 764 mmHg 50%
11:00 +20°C° 0 mm 3 mps 763 mmHg 46%
12:00 +21°C° 0 mm 3 mps 763 mmHg 42%
13:00 +21°C° 0 mm 3 mps 763 mmHg 41%
14:00 +23°C° 0 mm 2 mps 763 mmHg 39%
15:00 +23°C° 0 mm 2 mps 762 mmHg 38%
16:00 +21°C° 0 mm 2 mps 762 mmHg 41%
17:00 +19°C° 0 mm 2 mps 762 mmHg 45%
18:00 +18°C° 0 mm 2 mps 762 mmHg 48%
19:00 +17°C° 0 mm 2 mps 762 mmHg 50%
20:00 +17°C° 0 mm 2 mps 762 mmHg 52%
21:00 +16°C° 0 mm 2 mps 762 mmHg 53%
22:00 +16°C° 0 mm 2 mps 762 mmHg 54%
23:00 +15°C° 0 mm 2 mps 762 mmHg 54%

24 September, Thursday

Time Temperature Precipitation Wind Pressure Humidity
00:00 +15°C° 0 mm 2 mps 762 mmHg 54%
01:00 +15°C° 0 mm 2 mps 762 mmHg 51%
02:00 +14°C° 0 mm 2 mps 762 mmHg 48%
03:00 +14°C° 0 mm 2 mps 762 mmHg 45%
04:00 +13°C° 0 mm 2 mps 763 mmHg 44%
05:00 +13°C° 0 mm 2 mps 763 mmHg 43%
06:00 +12°C° 0 mm 1 mps 763 mmHg 43%
07:00 +14°C° 0 mm 2 mps 763 mmHg 40%
08:00 +16°C° 0 mm 2 mps 763 mmHg 36%
09:00 +17°C° 0 mm 2 mps 763 mmHg 33%
10:00 +18°C° 0 mm 3 mps 763 mmHg 31%
11:00 +19°C° 0 mm 4 mps 763 mmHg 29%
12:00 +21°C° 0 mm 4 mps 763 mmHg 27%
13:00 +21°C° 0 mm 4 mps 763 mmHg 26%
14:00 +21°C° 0 mm 4 mps 762 mmHg 25%
15:00 +22°C° 0 mm 4 mps 762 mmHg 24%
16:00 +20°C° 0 mm 4 mps 762 mmHg 26%
17:00 +19°C° 0 mm 4 mps 762 mmHg 28%
18:00 +18°C° 0 mm 3 mps 762 mmHg 31%
19:00 +17°C° 0 mm 3 mps 762 mmHg 32%
20:00 +17°C° 0 mm 3 mps 762 mmHg 33%
21:00 +16°C° 0 mm 3 mps 762 mmHg 34%
22:00 +14°C° 0 mm 3 mps 762 mmHg 36%
23:00 +14°C° 0 mm 3 mps 762 mmHg 37%
Show more